[[[{"header":{"parameterUnit":"kt","parameterCategory":2,"dx":1,"dy":1,"la1":30.253999710083008,"la2":30.299108505249023,"lo1":-89.0895004272461,"lo2":-89.04439544677734,"nx":28,"ny":28,"refTime":"2022-09-29T21:00:00:Z","depth":0,"parameterNumber":1,"parameterNumberName":"U-component_of_WINDS"},"data":[-2.8546,-2.8766,-2.8786,-2.9046,-2.9108,-2.929,-2.9362,-2.9456,-2.9536,-2.9755,-2.9885,-2.9927,-3.0016,-3.0176,-3.0318,-3.0334,-3.0396,-3.0458,-3.0467,-3.0165,-3.0125,-3.0086,-3.0037,-3.0469,-3.047,-3.078,-3.0783,-3.0786,-2.8321,-2.8385,-2.8527,-2.868,-2.8803,-2.8754,-2.8871,-2.8978,-2.9142,-2.9242,-2.937,-2.9565,-2.9722,-2.979,-2.9945,-3.0049,-3.0037,-3.009,-3.0087,-3.0102,-2.9778,-2.9725,-3.0098,-3.0098,-3.0098,-3.0098,-3.0097,-3.0097,-2.792,-2.805,-2.8154,-2.831,-2.8392,-2.8494,-2.8622,-2.8671,-2.8812,-2.8975,-2.8971,-2.9157,-2.9262,-2.9458,-2.9528,-2.9675,-2.962,-2.9686,-2.9704,-2.9722,-2.9741,-2.9298,-2.9701,-2.97,-2.9699,-2.9698,-2.9698,0,-2.7634,-2.7642,-2.778,-2.7925,-2.8039,-2.8153,-2.8262,-2.8341,-2.8365,-2.848,-2.8649,-2.875,-2.8949,-2.9112,-2.926,-2.9321,-2.9287,-2.9283,-2.933,-2.934,-2.9328,-2.9342,-2.8818,-2.9273,-2.927,-2.9267,-2.9265,-2.9264,-2.7236,-2.7384,-2.7502,-2.7596,-2.7661,-2.7813,-2.7908,-2.7917,-2.8019,-2.8153,-2.8269,-2.843,-2.8561,-2.8828,-2.8886,-2.9036,-2.9022,-2.9194,-2.9045,-2.9045,-2.9032,-2.9026,-2.9043,-2.9226,-2.9231,-2.9235,-2.9238,0,-2.701,-2.7042,-2.7279,-2.7381,-2.7411,-2.7567,-2.7655,-2.7786,-2.7819,-2.8005,-2.8048,-2.8103,-2.8269,-2.8299,-2.8495,-2.8506,-2.8767,-2.8746,-2.8732,-2.8732,-2.8893,-2.888,-2.9403,-2.9474,-2.9019,-2.9023,-2.9027,0,-2.6687,-2.6881,-2.6918,-2.7054,-2.727,-2.7275,-2.749,-2.7541,-2.763,-2.7777,-2.7739,-2.7877,-2.7893,-2.8036,-2.8053,-2.827,-2.8305,-2.833,-2.8333,-2.8338,-2.8336,-2.8398,-2.838,-2.8327,-2.8325,-2.8322,-2.832,0,-2.6337,-2.6582,-2.6802,-2.6864,-2.6993,-2.7097,-2.7155,-2.7256,-2.735,-2.7475,-2.7537,-2.7682,-2.7764,-2.7877,-2.7899,-2.7797,-2.8163,-2.8028,-2.8189,-2.8189,-2.8275,-2.8271,-2.8719,-2.8317,-2.8316,-2.8315,-2.8314,0,-2.6083,-2.6208,-2.652,-2.6628,-2.6693,-2.6837,-2.6981,-2.7111,-2.722,-2.724,-2.7339,-2.732,-2.7509,-2.7373,-2.7635,-2.7497,-2.7579,-2.7618,-2.763,-2.7656,-2.7504,-2.7762,-2.8179,-2.8228,-2.767,-2.7664,-2.766,0,-2.5676,-2.5999,-2.6006,-2.6303,-2.6457,-2.6406,-2.6566,-2.6663,-2.6703,-2.6841,-2.6884,-2.7041,-2.6945,-2.6999,-2.7123,-2.7177,-2.7356,-2.7152,-2.7357,-2.7365,-2.7336,-2.7719,-2.7778,-2.8083,-2.7591,-2.7598,-2.7603,0,-2.5366,-2.5521,-2.5574,-2.5646,-2.5774,-2.5903,-2.6085,-2.6242,-2.6333,-2.6445,-2.6602,-2.6819,-2.6758,-2.6847,-2.6848,-2.6977,-2.7235,-2.6894,-2.6897,-2.696,-2.7557,-2.7612,-2.7663,-2.7207,-2.7215,-2.7222,-2.7549,0,-2.4986,-2.515,-2.5291,-2.5449,-2.5552,-2.5738,-2.5771,-2.5874,-2.5864,-2.5903,-2.6131,-2.622,-2.6381,-2.6444,-2.6436,-2.6719,-2.6678,-2.6611,-2.6487,-2.6735,-2.6845,-2.6888,-2.6321,-2.6317,-2.6315,-2.6312,0,0,-2.4592,-2.4829,-2.4832,-2.501,-2.5098,-2.5044,-2.5241,-2.532,-2.5483,-2.5546,-2.5474,-2.5797,-2.5874,-2.6149,-2.6228,-2.6291,-2.6347,-2.6259,-2.6615,-2.6649,-2.668,-2.6796,-2.6841,-2.6307,-2.6306,-2.6305,-2.6304,0,-2.4462,-2.4536,-2.4729,-2.4811,-2.4932,-2.4963,-2.5009,-2.5121,-2.5155,-2.5377,-2.5334,-2.5474,-2.5731,-2.582,-2.5899,-2.6224,-2.6187,-2.627,-2.6436,-2.6584,-2.6621,-2.6655,-2.6776,-2.6819,-2.6297,-2.6297,-2.6297,0,-2.4167,-2.4248,-2.4344,-2.4538,-2.4618,-2.4777,-2.4653,-2.4825,-2.4944,-2.488,-2.5103,-2.5157,-2.5277,-2.553,-2.5645,-2.5585,-2.6039,-2.59,-2.592,-2.5935,-2.608,-2.6125,-2.6165,-2.5639,-2.5636,-2.5634,0,0,-2.4051,-2.4202,-2.4294,-2.4513,-2.4566,-2.4615,-2.4703,-2.4703,-2.481,-2.4854,-2.4924,-2.5032,-2.5181,-2.528,-2.5423,-2.5695,-2.5723,-2.5818,-2.5849,-2.5874,-2.5903,-2.6055,-2.6099,-2.5625,-2.5625,-2.5625,0,0,-2.3996,-2.411,-2.4081,-2.4339,-2.4442,-2.4549,-2.4682,-2.465,-2.4781,-2.4764,-2.4774,-2.4803,-2.5039,-2.5096,-2.4969,-2.538,-2.5255,-2.5286,-2.5336,-2.5376,-2.5407,-2.5391,-2.4858,0,0,0,0,0,-2.3881,-2.4095,-2.4067,-2.4116,-2.4363,-2.4563,-2.4595,-2.4607,-2.4518,-2.4624,-2.4678,-2.463,-2.5029,-2.4917,-2.4966,-2.511,-2.5507,-2.5528,-2.5548,-2.5676,-2.5717,-2.5752,0,0,0,0,0,0,-2.39,-2.3958,-2.4062,-2.4177,-2.4233,-2.4555,-2.4409,-2.4418,-2.4508,-2.4495,-2.462,-2.4633,-2.4649,-2.4893,-2.4937,-2.5073,-2.4843,-2.5515,-2.5533,-2.5549,-2.569,-2.5724,-2.5752,0,0,0,0,0,-2.3915,-2.3962,-2.4355,-2.4174,-2.4223,-2.429,-2.4401,-2.4407,-2.4477,-2.4561,-2.4572,-2.4478,-2.4652,-2.469,-2.4919,-2.5053,-2.4813,-2.4829,-2.5527,-2.5541,-2.5553,-2.5707,0,0,0,0,0,0,-2.3926,-2.397,-2.4365,-2.438,-2.4094,-2.4272,-2.43,-2.4398,-2.4538,-2.4551,-2.4418,-2.4407,-2.4657,-2.4685,-2.4715,-2.5046,-2.4788,-2.4805,-2.4815,-2.5537,-2.5548,-2.5558,0,0,0,0,0,0,-2.3945,-2.3984,-2.4373,-2.4271,-2.4275,-2.4256,-2.4281,-2.4477,-2.454,-2.4387,-2.4381,-2.4412,-2.4614,-2.4684,-2.4706,-2.5012,-2.477,-2.4785,-2.4796,-2.4803,-2.5546,-2.5555,0,0,0,0,0,0,-2.3961,-2.3995,-2.4267,-2.427,-2.4273,-2.4445,-2.4429,-2.4683,-2.4451,-2.4381,-2.443,-2.4421,-2.4614,-2.4636,-2.4701,-2.4997,-2.5008,-2.477,-2.4781,-2.4788,-2.4793,0,0,0,0,0,0,0,-2.3975,-2.3749,-2.4274,-2.4269,-2.4271,-2.4521,-2.4526,-2.453,-2.4448,-2.444,-2.4432,-2.4425,-2.4679,-2.4697,-2.4714,-2.4985,0,0,-2.4768,-2.4776,0,0,0,0,0,0,0,0,-2.3735,-2.3745,-2.4275,-2.4278,-2.4281,-2.4522,-2.4525,-2.4529,-2.4447,-2.4441,-2.4434,-2.4428,-2.4684,-2.4698,-2.4712,0,0,0,0,0,0,0,0,0,0,0,0,0,0,0,-2.4275,-2.4278,0,-2.4523,-2.4525,-2.4528,-2.4446,-2.4441,-2.4435,-2.443,-2.4688,-2.4699,-2.4711,0,0,0,0,0,0,0,0,0,0,0,0,0,0,0,0,0,0,0,0,0,0,0,0,0,0,0,0,0,0,0,0,0,0,0,0,0,0,0,0,0,0,0,0,0,0,0,0,0,0,0,0,0,0,0,0,0,0,0,0,0,0,0,0,0,0,0,0,0]}],[{"header":{"parameterUnit":"kt","parameterCategory":2,"dx":1,"dy":1,"la1":30.253999710083008,"la2":30.299108505249023,"lo1":-89.0895004272461,"lo2":-89.04439544677734,"nx":28,"ny":28,"refTime":"2022-09-29T21:00:00:Z","depth":0,"parameterNumber":2,"parameterNumberName":"V-component_of_WINDS"},"data":[-11.298,-11.3188,-11.3196,-11.3435,-11.3481,-11.3643,-11.3702,-11.3778,-11.3839,-11.4029,-11.4138,-11.4161,-11.422,-11.4347,-11.4461,-11.4467,-11.4514,-11.4583,-11.4578,-11.427,-11.4227,-11.4186,-11.4139,-11.4594,-11.4594,-11.4895,-11.4898,-11.49,-11.2749,-11.2799,-11.2929,-11.3058,-11.3168,-11.3106,-11.3201,-11.3295,-11.344,-11.3517,-11.3626,-11.3791,-11.392,-11.3956,-11.4079,-11.417,-11.4145,-11.4203,-11.4194,-11.4204,-11.3876,-11.3825,-11.4221,-11.4221,-11.4221,-11.4221,-11.4221,-11.4221,-11.2331,-11.2457,-11.254,-11.2681,-11.2747,-11.2833,-11.2951,-11.298,-11.3103,-11.3238,-11.3218,-11.3381,-11.3455,-11.3605,-11.3655,-11.3778,-11.3713,-11.3776,-11.3792,-11.3807,-11.3823,-11.3384,-11.3799,-11.3798,-11.3797,-11.3796,-11.3795,0,-11.2026,-11.2024,-11.215,-11.2277,-11.2379,-11.2478,-11.2568,-11.2641,-11.2632,-11.2734,-11.288,-11.2964,-11.3129,-11.3263,-11.3379,-11.3418,-11.3357,-11.3353,-11.3395,-11.3406,-11.3401,-11.3403,-11.2865,-11.334,-11.3336,-11.3333,-11.3331,-11.3329,-11.1602,-11.1749,-11.184,-11.1926,-11.1978,-11.2118,-11.2201,-11.2184,-11.2272,-11.2377,-11.2485,-11.2622,-11.273,-11.2959,-11.2984,-11.3105,-11.3076,-11.3257,-11.3093,-11.3098,-11.3075,-11.3066,-11.3078,-11.3288,-11.3293,-11.3298,-11.3301,0,-11.1362,-11.1373,-11.1602,-11.1676,-11.1699,-11.1852,-11.1912,-11.2034,-11.2047,-11.2216,-11.2254,-11.2274,-11.2415,-11.2412,-11.2572,-11.2565,-11.2807,-11.2777,-11.278,-11.2773,-11.2932,-11.2916,-11.3456,-11.3524,-11.3055,-11.3059,-11.3063,0,-11.1003,-11.1196,-11.12,-11.1333,-11.1544,-11.1523,-11.1731,-11.1764,-11.1831,-11.1963,-11.1898,-11.2023,-11.2,-11.2123,-11.2113,-11.231,-11.2341,-11.2346,-11.2341,-11.2351,-11.235,-11.2393,-11.237,-11.2327,-11.2324,-11.2321,-11.2319,0,-11.0624,-11.0853,-11.1069,-11.1122,-11.122,-11.132,-11.1364,-11.1439,-11.152,-11.1624,-11.1676,-11.1798,-11.1864,-11.1958,-11.1944,-11.1833,-11.2186,-11.2031,-11.2191,-11.2191,-11.2267,-11.2263,-11.2743,-11.2316,-11.2315,-11.2314,-11.2313,0,-11.0334,-11.0447,-11.0759,-11.0838,-11.0898,-11.1039,-11.116,-11.1281,-11.1364,-11.1368,-11.1449,-11.1404,-11.158,-11.1425,-11.1664,-11.1523,-11.159,-11.1612,-11.1623,-11.1636,-11.1463,-11.1731,-11.2192,-11.2239,-11.165,-11.1645,-11.164,0,-10.9896,-11.0215,-11.0199,-11.0495,-11.0641,-11.0559,-11.0714,-11.0791,-11.081,-11.0933,-11.0951,-11.1091,-11.0976,-11.1019,-11.1138,-11.1161,-11.1344,-11.1137,-11.1306,-11.1312,-11.1285,-11.1709,-11.1778,-11.2092,-11.1569,-11.1577,-11.1582,0,-10.9557,-10.9678,-10.9733,-10.9792,-10.9894,-11.0016,-11.0196,-11.0331,-11.0414,-11.0508,-11.0655,-11.0852,-11.0772,-11.0844,-11.082,-11.0944,-11.1219,-11.0841,-11.0842,-11.0906,-11.1535,-11.1598,-11.1651,-11.1175,-11.1183,-11.119,-11.1526,0,-10.9113,-10.9274,-10.9422,-10.9558,-10.9653,-10.9839,-10.9841,-10.9939,-10.9907,-10.9923,-11.014,-11.0201,-11.0336,-11.0396,-11.0366,-11.0653,-11.0604,-11.0517,-11.0364,-11.0644,-11.0754,-11.08,-11.02,-11.0195,-11.0192,-11.0188,0,0,-10.8688,-10.8921,-10.8899,-10.9075,-10.9153,-10.9065,-10.9264,-10.9328,-10.9462,-10.9516,-10.9432,-10.9719,-10.9773,-11.0035,-11.0122,-11.0178,-11.0227,-11.013,-11.0512,-11.0548,-11.0581,-11.0699,-11.0747,-11.0182,-11.018,-11.0179,-11.0178,0,-10.8526,-10.8592,-10.8791,-10.8859,-10.8958,-10.8967,-10.9015,-10.9096,-10.9115,-10.933,-10.925,-10.938,-10.9612,-10.9678,-10.9741,-11.0099,-11.003,-11.0141,-11.0333,-11.0474,-11.0515,-11.0551,-11.0676,-11.0721,-11.0169,-11.0169,-11.017,0,-10.8191,-10.8254,-10.8352,-10.853,-10.8593,-10.8746,-10.8588,-10.8757,-10.8868,-10.8759,-10.8973,-10.9007,-10.9096,-10.9345,-10.9457,-10.9383,-10.985,-10.9703,-10.9727,-10.9739,-10.9874,-10.9924,-10.9968,-10.9387,-10.9384,-10.9382,0,0,-10.805,-10.8202,-10.8263,-10.8495,-10.8541,-10.8557,-10.8638,-10.8616,-10.8701,-10.8735,-10.8778,-10.886,-10.8993,-10.9082,-10.9207,-10.9482,-10.9496,-10.9607,-10.9644,-10.9674,-10.9702,-10.9846,-10.9895,-10.9372,-10.9371,-10.9371,0,0,-10.7982,-10.8063,-10.8018,-10.8288,-10.8374,-10.8446,-10.8586,-10.8531,-10.8645,-10.8623,-10.8589,-10.861,-10.8843,-10.8879,-10.8743,-10.9152,-10.9001,-10.9034,-10.912,-10.9166,-10.9203,-10.9188,-10.8586,0,0,0,0,0,-10.7818,-10.8053,-10.8012,-10.8057,-10.8281,-10.847,-10.8498,-10.8478,-10.8372,-10.8483,-10.8509,-10.843,-10.8798,-10.8677,-10.872,-10.8872,-10.924,-10.9263,-10.9285,-10.9461,-10.9509,-10.955,0,0,0,0,0,0,-10.7836,-10.7892,-10.8005,-10.8088,-10.8138,-10.8462,-10.8277,-10.8278,-10.8359,-10.8342,-10.8428,-10.8433,-10.8417,-10.8653,-10.8692,-10.8837,-10.8572,-10.9249,-10.9269,-10.9287,-10.9477,-10.9517,-10.9551,0,0,0,0,0,-10.785,-10.7895,-10.826,-10.8085,-10.8128,-10.8158,-10.8268,-10.8267,-10.8329,-10.8371,-10.8374,-10.8307,-10.8422,-10.8453,-10.8676,-10.882,-10.8545,-10.856,-10.9262,-10.9277,-10.9291,-10.9497,0,0,0,0,0,0,-10.786,-10.7894,-10.8268,-10.828,-10.7995,-10.8139,-10.8161,-10.8258,-10.8353,-10.8358,-10.8247,-10.8232,-10.8428,-10.8451,-10.8476,-10.8815,-10.8522,-10.8538,-10.8547,-10.9274,-10.9286,-10.9297,0,0,0,0,0,0,-10.7869,-10.7905,-10.8274,-10.8162,-10.8161,-10.8122,-10.8142,-10.8328,-10.8355,-10.8223,-10.8214,-10.824,-10.8389,-10.8451,-10.847,-10.8761,-10.8505,-10.852,-10.853,-10.8536,-10.9284,-10.9293,0,0,0,0,0,0,-10.7884,-10.7915,-10.8159,-10.8159,-10.8157,-10.8293,-10.8285,-10.8514,-10.8264,-10.822,-10.824,-10.823,-10.8391,-10.841,-10.8467,-10.875,-10.8758,-10.8506,-10.8515,-10.8522,-10.8527,0,0,0,0,0,0,0,-10.7896,-10.7697,-10.8196,-10.8155,-10.8154,-10.8393,-10.8397,-10.84,-10.8261,-10.8252,-10.8243,-10.8234,-10.8423,-10.8438,-10.8455,-10.8741,0,0,-10.8504,-10.8511,0,0,0,0,0,0,0,0,-10.7683,-10.7693,-10.8196,-10.8199,-10.8201,-10.8394,-10.8396,-10.8399,-10.826,-10.8252,-10.8245,-10.8238,-10.8427,-10.844,-10.8453,0,0,0,0,0,0,0,0,0,0,0,0,0,0,0,-10.8196,-10.8199,0,-10.8394,-10.8396,-10.8399,-10.8259,-10.8253,-10.8246,-10.8241,-10.8431,-10.8441,-10.8452,0,0,0,0,0,0,0,0,0,0,0,0,0,0,0,0,0,0,0,0,0,0,0,0,0,0,0,0,0,0,0,0,0,0,0,0,0,0,0,0,0,0,0,0,0,0,0,0,0,0,0,0,0,0,0,0,0,0,0,0,0,0,0,0,0,0,0,0,0]}]]]